Regional Weather Roundup
Issued by NWS Wakefield, VA

Home | Current Version | Previous Version | Text Only | Print | Product List | Glossary On
Versions: 1 2 3 4 5 6 7 8 9 10 11 12 13 14 15 16 17 18 19 20 21 22 23 24 25 26 27
000
ASUS41 KAKQ 240615
RWRAKQ

REGIONAL WEATHER ROUNDUP
NATIONAL WEATHER SERVICE WAKEFIELD VA
200 AM EDT MON APR 24 2017

Note: "fair" indicates few or no clouds below 12,000 feet with no
significant weather and/or obstructions to visibility. * = Denotes
station may not report precipitation (e.g., rain,snow,etc.),
thunder or fog.

VAZ042-051-052>054-056-240700-
NORTHERN VIRGINIA

CITY           SKY/WX    TMP DP  RH WIND       PRES   REMARKS
WASH NATIONAL  LGT RAIN  56  48  74 E7        30.09F
DULLES         CLOUDY    54  46  74 CALM      30.08F
FORT BELVOIR   CLOUDY    53  48  84 CALM      30.08F
QUANTICO       CLOUDY    56  49  77 E9        30.08F
FREDERICKSBRG* CLOUDY    54  50  86 NE5       30.06F
STAFFORD*      RAIN      52  51  96 CALM      30.11F
WARRENTON      DRIZZLE   52  49  89 CALM      30.07F
CULPEPER*      LGT RAIN  52  51  98 N3        30.08F
MANASSAS*      LGT RAIN  52  50  93 CALM      30.09F
LEESBURG*      CLOUDY    54  50  87 CALM      30.09F
WINCHESTER     CLOUDY    48  43  81 CALM      30.08F
FRONT ROYAL*   CLOUDY    50  45  81 CALM      30.07F
LURAY*         RAIN      50  46  87 CALM      30.07S
$$

VAZ048-049-060>072-079>083-240700-
CENTRAL AND SOUTH CENTRAL VIRGINIA

CITY           SKY/WX    TMP DP  RH WIND       PRES   REMARKS
RICHMOND       LGT RAIN  52  50  93 NE8       30.03F FOG
CHESTERFIELD*  CLOUDY    52  36  54 NE7       30.03F
PETERSBURG*    LGT RAIN  51  50  96 NE7       30.02F
HANOVER        CLOUDY    52  47  83 VRB3      30.05F
TAPPAHANNOCK*  CLOUDY    53  52  97 N5        30.06F
QUINTON*       CLOUDY    51  51 100 NE6       30.03F
CHARLOTTSVILLE CLOUDY    51  49  92 N3        30.06F
GORDONSVILLE*  CLOUDY    51  49  92 NE3       30.06F
ORANGE*        LGT RAIN  50  46  87 CALM      30.07F
LOUISA*        CLOUDY    54  52  94 NE3       30.05S
BUMPASS*       CLOUDY    51  51 100 CALM      30.06F
FARMVILLE*     CLOUDY    51  51 100 NE9       30.01F FOG
CREWE*         CLOUDY    50  50 100 NE5       30.01F
FORT PICKETT*  CLOUDY   N/A N/A N/A NE8       30.01F
CHASE CITY*    CLOUDY    50  48  94 E7G16     29.97F
CLARKSVILLE*   CLOUDY    50  50 100 NE6G16    29.96F
SOUTH HILL*    CLOUDY    50  50 100 N6        30.04F
LAWRENCEVILLE* CLOUDY    51  50  97 NE5       29.98F
EMPORIA*       CLOUDY    52  50  93 N6        30.00F
$$

VAZ088>098-240700-
SOUTHEAST VIRGINIA

CITY           SKY/WX    TMP DP  RH WIND       PRES   REMARKS
NORFOLK        CLOUDY    57  53  86 NE15G22   29.99F
VIRGINIA BEACH CLOUDY    54  52  93 NE10      29.98F
NORFOLK NAVAL  DRIZZLE   57  54  89 NE15      30.01F
WEST POINT*    CLOUDY    53  51  94 CALM      30.03F
SALUDA*        CLOUDY    54  51  92 E9        30.03F
NEWPORT NEWS   CLOUDY    54  52  93 NE13      30.01F
LANGLEY AFB    CLOUDY    55  54  97 NE16      30.00F
FORT EUSTIS    CLOUDY    54  52  92 NE8       29.98F
WILLIAMSBURG*  MOCLDY    55  55 100 CALM      30.02F
HR EXEC AP*    CLOUDY    55  52  88 NE10      29.98F
FRANKLIN*      CLOUDY    54  52  94 NE8       29.98F
US460-WAKEFLD  CLOUDY    53  52  96 NE5       30.00F
$$

VAZ020-022-025-037-045-240700-
WEST CENTRAL AND SOUTHWEST VIRGINIA

CITY           SKY/WX    TMP DP  RH WIND       PRES   REMARKS
STAUNTON*      RAIN      47  46  93 N5        30.08F
WAYNESBORO*    CLOUDY    47  47 100 NW5       30.05F
HOT SPRINGS VA RAIN      39  37  93 E10G18    30.01S VSB<1/4
LYNCHBURG      LGT RAIN  48  46  93 N12G22    30.02F FOG
DANVILLE       LGT RAIN  50  50 100 NE8       29.97F
SOUTH BOSTON*  CLOUDY    50  49  95 NE5       29.97F
MARTINSVILLE   RAIN      47  46  95 NE8       30.00F
ROANOKE        RAIN      48  47  96 NE6       30.04F
BLACKSBURG     RAIN      45  43  94 NE10      30.01F
DUBLIN*        HVY RAIN  46  43  90 E8        29.99F
MARION*        LGT RAIN  44  43  96 CALM      29.98F
HILLSVILLE*    RAIN      43  43 100 CALM      29.94F
RICHLANDS*     RAIN      46  45  97 E7G18     29.91F
WISE*          LGT RAIN  48  48 100 CALM      29.87R
ABINGDON*      DRIZZLE   48  46  95 E17       29.89F
$$

MDZ021>025-VAZ099-100-240700-
SOUTHERN MARYLAND AND THE DELMARVA PENINSULA

CITY           SKY/WX    TMP DP  RH WIND       PRES   REMARKS
PATUXENT RIVER CLOUDY    52  50  93 NE10      30.06F
BAY BRIDGE APT CLOUDY    52  45  76 E5        30.09F
LEONARDTOWN    CLOUDY    50  46  87 NE3       30.07F
DOVER          CLOUDY    51  51 100 E6        30.09F
GEORGETOWN     CLOUDY    51  47  86 MISG      30.08F
EASTON         PTCLDY    52  46  80 E3        30.12F
CAMBRIDGE      MOCLDY    50  46  87 NE5       30.08F
SALISBURY      CLOUDY    50  49  96 NE6       30.07F
OCEAN CITY     CLOUDY    51  47  86 NE10      30.07F
WALLOPS ISLAND LGT RAIN  52  47  83 NE15      30.06S
ACCOMACK*      RAIN      53  48  83 E13       30.04F
$$

NCZ012>017-030>032-240700-
NORTH CENTRAL AND EASTERN NORTH CAROLINA

CITY           SKY/WX    TMP DP  RH WIND       PRES   REMARKS
ROANOKE RAPIDS CLOUDY    52  52 100 NE8       29.96F
RALEIGH        LGT RAIN  53  51  93 E10       29.92F FOG
ELIZABETH CITY CLOUDY    58  58 100 NE18G24   29.96F
AHOSKIE*         N/A     52  51  97 NE6       29.96F
EDENTON*       CLOUDY    59  56  89 NE6       29.96F
CURRITUCK*     CLOUDY    58  58 100 N10G16    29.98F
KILL DEVIL HLS CLOUDY    58  57  97 CALM      29.93F
MANTEO         CLOUDY    59  57  94 NE16      29.94F
CAPE HATTERAS  PTCLDY    64  62  93 NE8       29.90F FOG
TARBORO*       NOT AVBL
GOLDSBORO      CLOUDY    55  55 100 NE10      29.88F FOG
WASHINGTON     CLOUDY    57  56  96 NE7       29.93F
GREENVILLE     CLOUDY    55  55 100 NE7       29.95F
NEW BERN       CLOUDY    60  59  96 NE8       29.90F
WILMINGTON     CLOUDY    61  61 100 NE12      29.84F
$$

VAZ048-240700-
ELSEWHERE

CITY           SKY/WX    TMP DP  RH WIND       PRES   REMARKS
HARRISBURG PA  CLOUDY    48  45  89 CALM      30.08F
BALTIMORE      CLOUDY    53  50  89 CALM      30.09F
ANNAPOLIS      CLOUDY    56  47  71 E6        30.08F
ANDREWS AFB    CLOUDY    52  47  84 CALM      30.07F
PHILADELPHIA   CLOUDY    51  45  79 SE3       30.11F
HENDERSON NC   LGT RAIN  49  48  97 NE14      29.95F
GREENSBORO     LGT RAIN  50  50 100 NE14G20   29.92F FOG
ROCKY MOUNT    CLOUDY    53  53 100 NE7       29.94F
$$

VAZ100-240700-
MARINE

STATION/POSITION TIME  TEMP    WIND        PRES    WAVE   SWELL
                       AIR SEA DIR/SP/G            HT/PER HT/PER
                 (UTC) (F)     (DEG/KT/KT) (MB)    (FT/S) (FT/S)
CAPE MAY NJ      0548      56   70/  6/  8 1018.8F
LEWES DE         0548      54   80/ 10/ 11 1018.9F
15NM E FENWICK I 0550   51 52   40/ 12/ 16 1018.9F   5/ 8   3/ 8
OCEAN-CITY-INLET 0548      56   70/  8/ 12 1018.7F
WACHAPREAGUE VA  0542      61   40/ 15/ 19 1016.7F
THOMAS POINT MD  0600   54 58  100/  7/  8   N/A
GOOSES REEF MD   0600   54 54   90/ 10/ 12 1018.9    1/ 2
COVE POINT MD    0548           80/ 11/ 12 1018.7F
SOLOMONS ISLAND  0548      61   40/  8/ 10   N/A
BISHOPS HEAD MD  0548      61   50/ 11/ 15 1018.2F
PINEY POINT MD   0548           70/  7/  9   N/A
POTOMAC MD       0600   54 61   90/ 16/ 19 1016.4    1/ 3
CAMBRIDGE MD     0548      64   60/  7/  9 1017.9F
LEWISETTA VA     0542      62   80/ 12/ 18 1017.2F
RAPPAHANNOCK LGT 0548           50/ 15/ 17 1017.3F
STINGRAY PT      0550   54      80/ 16/ 17 1017.5F
YORK RVR RNG VA  0548           70/ 19/ 21 1015.7F
YORKTOWN VA      0542      63   70/ 18/ 19 1016.1F
JAMESTOWN VA     0600   54 67   60/  4/  6   N/A     0
DOMINION TERM VA 0548           60/ 11/ 18 1016.0F
KIPTOPEKE VA     0542      61   70/ 14/ 20   N/A
CHES BAY BRIDGE  0542      61   60/ 20/ 23 1015.5F
CAPE HENRY VA    0548           50/ 16/ 20   N/A
WILLOUBY STN VA  0548           50/ 18/ 20 1016.7F
S CRANEY ISL VA  0548           60/ 12/ 16 1015.5F
CAPE HENRY BUOY  0542      56                N/A     5/ 7   2/11
1ST LANDING BUOY 0600   56 61              1016.3    3/ 4
CAPE CHARLES BUO 0551      57                N/A     5/11   2/11
64NM E OF VA BCH 0550   57 53   60/ 16/ 17 1014.8F   6/ 8   3/ 8
DUCK PIER NC     0542      62   20/ 16/ 20 1013.8F
44100 DUCK FRF   0535      55                N/A     6/ 6   2/11
44056 DUCK FRF   0530      59                N/A     6/ 6   2/12
OREGON INLET NC  0542      58   40/ 12/ 16 1013.1F
HATTERAS NC      0542      68   60/  6/  8 1012.3F
DIAMOND SHLS NC  0550   76 79  170/ 10/ 14 1012.4F   7/11   7/11
CAPE LOOKOUT NC  0600   65      20/ 13/ 16 1010.9F
$$




USA.gov is the U.S. government's official web portal to all federal, state and local government web resources and services.